Weather reports worldwide

Advertisment
Ronchi Dei Legionari, Italy (16108): temperature & dewpoint: 15.06.2018 23:00:00 - 21.06.2018 23:00:00 (CEST)Ronchi Dei Legionari, Italy (16108): wind speed: 15.06.2018 23:00:00 - 21.06.2018 23:00:00 (CEST)Ronchi Dei Legionari, Italy (16108): wind direction: 15.06.2018 23:00:00 - 21.06.2018 23:00:00 (CEST)Ronchi Dei Legionari, Italy (16108): reduced air pressure: 15.06.2018 23:00:00 - 21.06.2018 23:00:00 (CEST)Ronchi Dei Legionari, Italy (16108): visibility: 15.06.2018 23:00:00 - 21.06.2018 23:00:00 (CEST)Ronchi Dei Legionari, Italy (16108): precipitation: 15.06.2018 23:00:00 - 21.06.2018 23:00:00 (CEST)
Date & Time tt [°C] td [°C] ff [km/h] ff [kn] dd ppp [hPa] vv [km] rr [mm]
21.06.2018 23:00:00 23,4 18,5 4 2 - 1012,7 10 0,0
21.06.2018 22:00:00 24,0 18,0 4 2 S - 10 -
21.06.2018 21:00:00 26,0 17,0 9 5 SE - 10 -
21.06.2018 20:00:00 27,0 16,4 8 4 S 1011,5 10 -
21.06.2018 19:00:00 28,0 16,0 13 7 S - 10 -
21.06.2018 18:00:00 29,0 16,0 15 8 SSW - 10 -
21.06.2018 17:00:00 29,6 15,4 16 9 SSW 1012,5 10 0,0
21.06.2018 16:00:00 30,0 16,0 18 10 SSW - 10 -
21.06.2018 15:00:00 30,0 18,0 16 9 SSW - 10 -
21.06.2018 14:00:00 29,8 16,3 13 7 S 1014,5 10 -
21.06.2018 13:00:00 29,0 18,0 13 7 SSW - 10 -
21.06.2018 12:00:00 29,0 18,0 9 5 S - 10 -
21.06.2018 11:00:00 28,1 18,6 8 4 SSE 1015,8 10 0,0
21.06.2018 10:00:00 27,0 18,0 8 4 S - 10 -
21.06.2018 09:00:00 26,0 17,0 5 3 SSE - 10 -
21.06.2018 08:00:00 24,4 16,6 5 3 E 1016,6 10 -
21.06.2018 07:00:00 21,0 17,0 2 1 - - 10 -
21.06.2018 06:00:00 18,0 16,0 4 2 NE - 10 -
21.06.2018 05:00:00 19,3 15,8 5 3 E 1016,7 10 0,0
21.06.2018 04:00:00 19,0 16,0 2 1 - - 10 -
21.06.2018 03:00:00 20,0 17,0 4 2 - - 10 -
21.06.2018 02:00:00 21,2 17,0 5 3 ENE 1017,6 10 -
21.06.2018 01:00:00 22,0 17,0 9 5 E - 10 -
21.06.2018 00:00:00 23,0 19,0 11 6 E - 10 -
20.06.2018 23:00:00 24,9 20,3 11 6 SE 1018,6 10 0,0
20.06.2018 22:00:00 26,0 21,0 11 6 SE - 10 -
20.06.2018 21:00:00 27,0 17,0 9 5 SE - 10 -
20.06.2018 20:00:00 29,1 17,5 11 6 WSW 1017,2 10 -
20.06.2018 19:00:00 30,0 16,0 15 8 WSW - 10 -
20.06.2018 18:00:00 32,0 15,0 9 5 W - 10 -
20.06.2018 17:00:00 31,2 14,7 15 8 WSW 1017,9 10 0,0
20.06.2018 16:00:00 32,0 13,0 11 6 SW - 10 -
20.06.2018 15:00:00 32,0 14,0 5 3 - - 10 -
20.06.2018 14:00:00 30,7 13,3 9 5 S 1019,6 10 -
20.06.2018 13:00:00 31,0 13,0 9 5 - - 10 -
20.06.2018 12:00:00 31,0 12,0 18 10 ESE - 10 -
20.06.2018 11:00:00 29,9 12,2 22 12 E 1020,7 10 0,0
20.06.2018 10:00:00 29,0 13,0 18 10 E - 10 -
20.06.2018 09:00:00 28,0 13,0 15 8 E - 10 -
20.06.2018 08:00:00 24,9 14,9 8 4 N 1021,2 10 -
20.06.2018 07:00:00 21,0 15,0 8 4 NNE - 10 -
20.06.2018 06:00:00 20,0 14,0 9 5 N - 10 -
20.06.2018 05:00:00 19,1 14,3 8 4 NNE 1020,5 10 0,0
20.06.2018 04:00:00 19,0 15,0 9 5 NNE - 10 -
20.06.2018 03:00:00 18,0 15,0 5 3 NE - 10 -
20.06.2018 02:00:00 19,5 14,3 8 4 ENE 1020,8 10 -
20.06.2018 01:00:00 22,0 14,0 5 3 ENE - 10 -
20.06.2018 00:00:00 23,0 15,0 4 2 - - 10 -
19.06.2018 23:00:00 24,6 13,9 9 5 E 1020,1 10 0,0
19.06.2018 22:00:00 26,0 14,0 5 3 ESE - 10 -
19.06.2018 21:00:00 28,0 14,0 4 2 - - 10 -
19.06.2018 20:00:00 29,4 14,4 11 6 SSW 1018,0 10 -
19.06.2018 19:00:00 31,0 13,0 11 6 W - 10 -
19.06.2018 18:00:00 31,0 12,0 15 8 WSW - 10 -
19.06.2018 17:00:00 31,0 12,3 13 7 WSW 1017,8 10 0,0
19.06.2018 16:00:00 31,0 12,0 15 8 WSW - 10 -
19.06.2018 15:00:00 31,0 11,0 8 4 WSW - 10 -
19.06.2018 14:00:00 30,5 12,0 8 4 WNW 1019,0 10 -
19.06.2018 13:00:00 30,0 11,0 9 5 WNW - 10 -
19.06.2018 12:00:00 29,0 11,0 11 6 W - 10 -
19.06.2018 11:00:00 28,5 14,0 9 5 W 1020,0 10 0,0
19.06.2018 10:00:00 27,0 12,0 5 3 W - 10 -
19.06.2018 09:00:00 25,0 12,0 4 2 - - 10 -
19.06.2018 08:00:00 21,8 16,1 4 2 - 1019,9 10 -
19.06.2018 07:00:00 18,0 14,0 4 2 NNE - 10 -
19.06.2018 06:00:00 16,0 13,0 2 1 - - 10 -
19.06.2018 05:00:00 15,6 13,2 5 3 NNE 1018,7 10 0,0
19.06.2018 04:00:00 16,0 14,0 5 3 ENE - 10 -
19.06.2018 03:00:00 17,0 15,0 5 3 WNW - 10 -
19.06.2018 02:00:00 16,9 15,4 5 3 W 1018,3 10 -
19.06.2018 01:00:00 18,0 15,0 5 3 N - 10 -
19.06.2018 00:00:00 18,0 16,0 5 3 N - 10 -
18.06.2018 23:00:00 20,7 14,2 5 3 E 1017,9 10 0,0
18.06.2018 22:00:00 22,0 15,0 8 4 ENE - 10 -
18.06.2018 21:00:00 22,0 16,0 4 2 - - 10 -
18.06.2018 20:00:00 21,7 16,2 11 6 W 1015,7 10 -
18.06.2018 19:00:00 28,0 14,0 21 11 SSE - 10 -
18.06.2018 18:00:00 31,0 14,0 16 9 WSW - 10 -
18.06.2018 17:00:00 31,2 13,6 9 5 - 1014,1 10 0,0
18.06.2018 16:00:00 31,0 10,0 9 5 - - 10 -
18.06.2018 15:00:00 31,0 12,0 11 6 W - 10 -
18.06.2018 14:00:00 30,7 9,8 9 5 NW 1015,4 10 -
18.06.2018 13:00:00 30,0 13,0 5 3 - - 10 -
18.06.2018 12:00:00 27,0 17,0 11 6 WNW - 10 -
18.06.2018 11:00:00 25,6 16,9 5 3 NW 1016,0 10 0,0
18.06.2018 10:00:00 23,0 16,0 5 3 NW - 10 -
18.06.2018 09:00:00 22,0 16,0 5 3 NW - 10 -
18.06.2018 08:00:00 20,4 15,3 2 1 - 1015,3 10 -
18.06.2018 07:00:00 19,0 15,0 8 4 NNW - 10 -
18.06.2018 06:00:00 17,0 14,0 5 3 N - 10 -
18.06.2018 05:00:00 17,3 14,3 2 1 - 1014,2 10 0,0
18.06.2018 04:00:00 17,0 14,0 4 2 - - 10 -
18.06.2018 03:00:00 19,0 15,0 5 3 NNE - 10 -
18.06.2018 02:00:00 19,0 15,1 5 3 N 1014,5 10 -
18.06.2018 01:00:00 19,0 16,0 9 5 NNW - 10 -
18.06.2018 00:00:00 21,0 16,0 9 5 N - 10 -
17.06.2018 23:00:00 22,3 16,2 11 6 NNE 1014,2 10 0,0
17.06.2018 22:00:00 24,0 15,0 5 3 NE - 10 -
17.06.2018 21:00:00 26,0 14,0 8 4 E - 10 -
17.06.2018 20:00:00 28,4 14,0 9 5 E 1012,5 10 -
17.06.2018 19:00:00 29,0 13,0 4 2 - - 10 -
17.06.2018 18:00:00 29,0 13,0 8 4 SW - 10 -
17.06.2018 17:00:00 29,1 13,4 11 6 S 1012,6 10 0,0
17.06.2018 16:00:00 30,0 14,0 13 7 SE - 10 -
17.06.2018 15:00:00 29,0 12,0 4 2 - - 10 -
17.06.2018 14:00:00 27,7 13,4 8 4 WSW 1013,4 10 -
17.06.2018 13:00:00 28,0 12,0 4 2 - - 10 -
17.06.2018 12:00:00 28,0 12,0 4 2 - - 10 -
17.06.2018 11:00:00 28,1 12,2 5 3 - 1013,5 10 0,0
17.06.2018 10:00:00 27,0 12,0 8 4 NNE - 10 -
17.06.2018 09:00:00 24,0 14,0 8 4 N - 10 -
17.06.2018 08:00:00 22,4 14,2 4 2 - 1013,2 10 -
17.06.2018 07:00:00 19,0 14,0 8 4 N - 10 -
17.06.2018 06:00:00 16,0 13,0 9 5 N - 10 -
17.06.2018 05:00:00 15,1 13,1 8 4 N 1012,9 10 0,0
17.06.2018 04:00:00 18,0 13,0 5 3 E - 10 -
17.06.2018 03:00:00 16,0 14,0 8 4 N - 10 -
17.06.2018 02:00:00 17,0 14,4 8 4 N 1013,3 10 -
17.06.2018 01:00:00 17,0 14,0 5 3 N - 10 -
17.06.2018 00:00:00 20,0 14,0 5 3 ENE - 10 -
16.06.2018 23:00:00 20,3 14,5 4 2 ENE 1012,9 10 0,0
16.06.2018 22:00:00 22,0 13,0 8 4 E - 10 -
16.06.2018 21:00:00 25,0 13,0 9 5 E - 10 -
16.06.2018 20:00:00 26,8 13,1 13 7 ESE 1011,0 10 -
16.06.2018 19:00:00 28,0 13,0 9 5 E - 10 -
16.06.2018 18:00:00 29,0 13,0 8 4 NNE - 10 -
16.06.2018 17:00:00 28,5 12,1 8 4 ENE 1011,1 10 0,0
16.06.2018 16:00:00 29,0 12,0 4 2 - - 10 -
16.06.2018 15:00:00 29,0 11,0 8 4 SE - 10 -
16.06.2018 14:00:00 29,3 11,5 8 4 - 1011,6 10 -
16.06.2018 13:00:00 28,0 10,0 9 5 - - 10 -
16.06.2018 12:00:00 28,0 11,0 11 6 NNW - 10 -
16.06.2018 11:00:00 27,1 11,0 9 5 N 1012,5 10 0,0
16.06.2018 10:00:00 25,0 12,0 9 5 N - 10 -
16.06.2018 09:00:00 23,0 13,0 9 5 N - 10 -
16.06.2018 08:00:00 21,1 12,0 8 4 N 1012,9 10 -
16.06.2018 07:00:00 18,0 11,0 8 4 NNE - 10 -
16.06.2018 06:00:00 15,0 12,0 8 4 N - 10 -
16.06.2018 05:00:00 15,8 11,4 9 5 N 1012,8 10 0,0
16.06.2018 04:00:00 16,0 12,0 9 5 N - 10 -
16.06.2018 03:00:00 16,0 13,0 5 3 N - 10 -
16.06.2018 02:00:00 15,8 13,5 4 2 N 1013,3 10 -
16.06.2018 01:00:00 17,0 13,0 5 3 N - 10 -
16.06.2018 00:00:00 20,0 13,0 4 2 NE - 10 -
15.06.2018 23:00:00 22,4 11,1 5 3 WNW 1012,9 10 0,0

tt = temperature
td = dewpoint
ff = wind speed
dd = wind direction
ppp = reduced air pressure
vv = visibility
rr = precipitation

Next stations